Location: Sungai Bunut
(2.6333°N, 113.7333°E)
Time: 20:13:42
(UTC+00:00)

Cosmos 1697 Rocket - Pass Details

Date: 26 May 2022
Orbit: 833 x 843 km, 71.0° (Epoch: 03 July)

Event Time Altitude Azimuth Distance (km) Brightness Sun altitude
Rises 11:57:48 0° 208° (SSW) 3,388 5.9 -21.2°
Reaches altitude 10° 12:00:20 10° 214° (SSW) 2,454 5.2 -21.7°
Maximum altitude 12:05:41 45° 285° (WNW) 1,123 3.7 -23.0°
Drops below altitude 10° 12:11:03 10° 358° (N) 2,450 5.4 -24.2°
Sets 12:13:35 0° 4° (N) 3,383 6.1 -24.8°
